Temperature
8 8 7 7 7 6 6 5 5 5 5 5 4 4 4 4 4 3 3 2 2 2 1 1 1 0 0 0 -0 -0 -1 -1 -1 -1 -1 -1 -1 -1 -1 -1 -1 -1 -1
8 7 7 6 6 6 5 5 5 4 4 4 4 4 3 3 3 3 2 2 1 1 1 0 -0 -1 -1 -1 -1 -2 -2 -2 -2 -2 -2 -2 -2 -2 -2 -2 -2 -2 -1
7 7 6 6 5 5 5 4 4 4 4 4 3 3 3 3 2 2 1 1 0 -0 -0 -1 -1 -2 -2 -2 -2 -3 -3 -3 -3 -3 -3 -3 -3 -3 -3 -3 -2 -2 -2
6 6 6 5 5 5 4 4 4 4 3 3 3 2 2 2 1 1 0 -0 -1 -1 -1 -2 -2 -3 -3 -3 -4 -4 -4 -4 -4 -4 -4 -3 -3 -3 -3 -3 -3 -3 -3
6 6 5 5 5 4 4 4 3 3 3 2 2 2 1 1 0 -0 -1 -1 -2 -2 -2 -3 -3 -4 -4 -4 -4 -4 -4 -4 -4 -4 -4 -4 -4 -4 -3 -3 -3 -3 -3
5 5 5 4 4 4 3 3 3 2 2 2 1 1 0 0 -0 -1 -2 -2 -3 -3 -3 -4 -4 -4 -4 -4 -4 -4 -4 -4 -4 -4 -3 -4 -4 -4 -4 -4 -4 -4 -4
5 5 4 4 3 3 3 2 2 2 1 1 0 -0 -0 -0 -1 -2 -2 -3 -3 -4 -4 -4 -5 -5 -5 -5 -5 -4 -4 -4 -4 -4 -4 -4 -4 -4 -4 -4 -4 -4 -4
4 4 3 3 3 2 2 2 1 1 0 0 -0 -1 -1 -1 -2 -3 -3 -4 -4 -4 -5 -5 -5 -5 -5 -5 -5 -4 -4 -4 -4 -4 -4 -4 -4 -4 -4 -4 -4 -4 -4
4 3 3 2 2 2 1 1 1 0 -0 -1 -1 -1 -2 -2 -3 -4 -4 -4 -5 -5 -5 -5 -5 -5 -5 -5 -5 -4 -4 -4 -4 -4 -4 -4 -4 -4 -4 -3 -3 -4 -4
3 3 2 2 2 1 1 0 -0 -0 -1 -1 -2 -2 -3 -3 -4 -4 -5 -5 -5 -5 -5 -5 -5 -5 -5 -5 -5 -5 -4 -4 -4 -4 -4 -4 -4 -4 -4 -4 -4 -4 -4
2 2 2 2 1 1 0 -0 -1 -1 -2 -2 -2 -3 -3 -4 -4 -5 -5 -5 -5 -5 -5 -5 -5 -6 -5 -5 -5 -5 -4 -4 -4 -4 -4 -4 -4 -4 -4 -4 -4 -4 -4
2 2 1 1 0 -0 -1 -1 -1 -2 -2 -3 -3 -3 -4 -4 -5 -6 -6 -6 -6 -6 -6 -6 -6 -6 -5 -5 -5 -5 -5 -5 -5 -5 -5 -4 -4 -4 -4 -4 -4 -5 -5
1 1 1 0 -0 -1 -1 -2 -2 -2 -3 -3 -4 -4 -5 -5 -6 -6 -6 -6 -6 -6 -6 -6 -6 -6 -6 -6 -5 -5 -5 -5 -5 -5 -5 -5 -5 -5 -5 -5 -5 -5 -5
0 0 -0 -1 -1 -1 -2 -2 -3 -3 -4 -4 -5 -5 -5 -6 -6 -6 -6 -6 -6 -6 -6 -6 -6 -6 -6 -6 -6 -6 -6 -6 -6 -6 -6 -5 -5 -5 -5 -5 -5 -6 -6
-0 -1 -1 -1 -2 -2 -2 -3 -3 -4 -4 -5 -5 -6 -6 -6 -6 -6 -6 -6 -6 -6 -6 -6 -6 -6 -6 -6 -6 -6 -6 -6 -6 -6 -6 -6 -6 -6 -6 -6 -6 -6 -6
-1 -1 -1 -2 -2 -3 -3 -3 -4 -4 -5 -5 -6 -6 -6 -6 -6 -7 -7 -7 -7 -7 -7 -7 -7 -7 -7 -7 -7 -7 -7 -7 -7 -7 -6 -6 -6 -6 -6 -6 -6 -6 -7
-2 -2 -2 -3 -3 -4 -4 -4 -5 -5 -5 -6 -6 -6 -7 -7 -7 -7 -7 -7 -7 -7 -7 -7 -7 -7 -7 -7 -7 -7 -7 -7 -7 -7 -7 -7 -7 -7 -6 -7 -7 -7 -7
-2 -3 -3 -3 -4 -4 -5 -5 -6 -6 -6 -6 -6 -7 -7 -7 -7 -7 -8 -8 -8 -8 -8 -8 -8 -7 -7 -7 -7 -7 -7 -7 -7 -7 -7 -7 -7 -7 -7 -7 -7 -7 -7
-3 -3 -4 -4 -5 -5 -5 -6 -6 -6 -7 -7 -7 -7 -7 -8 -8 -8 -8 -8 -8 -8 -8 -8 -8 -8 -8 -8 -8 -8 -8 -8 -8 -8 -7 -7 -7 -7 -7 -7 -7 -7 -7
-4 -4 -5 -5 -5 -6 -6 -6 -7 -7 -7 -7 -7 -8 -8 -8 -8 -8 -8 -9 -9 -9 -8 -8 -8 -8 -8 -8 -8 -8 -8 -8 -8 -8 -8 -8 -8 -8 -8 -8 -8 -8 -8
-4 -5 -5 -6 -6 -6 -7 -7 -7 -7 -7 -8 -8 -8 -8 -8 -8 -9 -9 -9 -9 -9 -9 -9 -9 -8 -8 -8 -8 -8 -8 -8 -8 -8 -8 -8 -8 -8 -8 -8 -8 -8 -8
-5 -6 -6 -6 -7 -7 -7 -7 -7 -7 -8 -8 -8 -8 -9 -9 -9 -9 -9 -9 -9 -9 -9 -9 -9 -9 -9 -8 -8 -8 -8 -8 -8 -8 -8 -8 -8 -8 -8 -8 -9 -9 -9
-6 -6 -7 -7 -7 -7 -7 -7 -7 -8 -8 -8 -9 -9 -9 -9 -9 -10 -10 -10 -10 -9 -9 -9 -9 -9 -9 -9 -9 -9 -9 -8 -8 -9 -9 -9 -9 -9 -9 -9 -9 -9 -9
-7 -7 -7 -7 -7 -8 -8 -8 -8 -8 -8 -9 -9 -9 -9 -10 -10 -10 -10 -10 -10 -10 -9 -9 -9 -9 -9 -9 -9 -9 -9 -9 -9 -9 -9 -9 -9 -9 -9 -9 -9 -9 -9
-7 -7 -8 -8 -8 -8 -8 -8 -8 -9 -9 -9 -10 -10 -10 -10 -10 -10 -10 -10 -10 -10 -10 -10 -9 -9 -9 -9 -9 -9 -9 -9 -9 -9 -9 -9 -9 -9 -9 -9 -9 -10 -10
-8 -8 -8 -8 -9 -9 -9 -9 -9 -9 -10 -10 -10 -10 -11 -11 -11 -11 -11 -10 -10 -10 -10 -10 -9 -9 -9 -9 -9 -9 -9 -9 -9 -9 -9 -9 -9 -9 -10 -10 -10 -10 -10
Wind_Speed
2 1 1 1 2 3 4 5 5 5 6 7 7 8 8 9 9 8 9 9 10 10 9 10 11 10 8 8 8 9 9 10 19 18 8 7 9 10 12 14 17 16 18
2 1 2 2 3 4 5 6 6 6 7 7 8 9 9 9 9 9 10 10 10 11 10 10 11 11 11 10 9 10 10 10 14 21 14 8 10 9 10 11 12 14 13
1 1 3 3 4 5 5 6 6 7 8 8 9 9 10 10 10 10 10 10 10 11 10 11 12 12 14 12 12 12 11 13 12 16 18 10 8 8 10 12 13 11 14
0 2 3 4 4 5 6 7 7 8 9 9 9 10 10 11 11 11 11 11 11 11 12 12 13 14 15 15 15 14 13 13 13 15 17 13 10 9 9 10 12 9 12
1 3 4 4 5 6 6 7 8 9 10 10 11 11 11 10 10 11 10 11 11 12 12 12 14 19 23 20 17 13 12 13 13 14 16 15 12 9 10 9 13 10 10
3 4 5 5 6 6 7 8 9 9 10 10 11 11 11 11 20 24 19 12 10 11 12 12 14 18 22 27 29 27 23 16 13 14 15 15 15 12 10 11 12 13 12
4 5 6 6 6 7 8 9 9 10 10 11 10 11 11 13 23 26 26 17 12 11 12 12 14 15 21 14 20 26 25 28 26 18 17 17 16 13 12 14 14 14 14
5 6 6 6 7 8 8 9 10 9 10 10 11 11 11 14 25 27 27 17 11 12 12 13 15 14 15 17 14 14 15 16 20 16 15 16 16 15 14 15 15 15 13
6 6 6 6 7 8 9 10 10 9 10 10 10 11 12 14 23 26 26 12 11 12 13 13 15 14 23 28 20 16 16 14 20 25 26 25 27 28 22 13 11 12 13
7 6 6 7 8 9 10 10 9 9 11 11 11 10 12 12 21 26 26 11 11 12 11 12 20 22 27 29 18 15 17 16 14 15 18 20 18 19 24 14 10 11 11
7 7 7 8 9 10 10 9 10 10 11 10 11 10 11 14 20 24 25 13 11 12 12 11 11 25 29 29 26 17 21 21 14 13 13 11 10 10 10 10 9 10 11
7 8 8 9 9 9 10 10 10 10 10 11 11 12 9 11 17 21 26 25 23 15 13 11 14 27 30 30 24 23 28 24 10 9 10 10 9 9 8 8 8 9 9
8 9 9 9 9 9 9 10 9 9 9 10 10 12 12 9 12 24 26 28 28 19 15 24 28 31 29 21 23 27 22 11 9 10 10 9 8 7 6 5 6 7 8
9 9 9 9 9 9 8 8 8 8 9 10 11 13 13 11 9 9 11 15 20 18 16 20 27 26 21 21 19 14 9 8 10 10 9 8 6 5 6 5 5 5 6
9 9 9 9 9 9 9 8 10 9 11 13 12 11 14 15 16 25 21 15 13 15 18 13 11 10 9 9 8 8 7 7 8 7 8 8 7 6 6 5 5 5 6
9 9 8 8 8 8 10 11 14 16 23 24 24 23 19 23 30 30 30 29 29 28 21 12 11 10 10 9 9 9 8 8 8 8 7 7 7 7 6 4 4 5 6
9 9 8 8 9 9 9 11 13 15 20 22 24 26 26 28 29 29 29 28 27 25 14 10 10 10 9 9 9 9 9 8 8 7 8 7 7 6 6 5 5 6 6
9 11 11 9 9 9 9 10 11 14 15 12 15 23 26 27 27 27 27 23 15 13 9 10 10 10 9 9 9 9 9 8 7 7 7 7 6 6 6 5 5 6 6
9 8 9 9 9 10 10 10 11 13 14 14 12 14 21 23 24 24 22 11 12 11 10 10 10 10 10 9 9 9 8 8 8 7 7 7 6 6 6 6 6 9 8
9 16 16 11 10 10 10 11 12 12 13 13 13 12 11 14 11 12 10 9 10 11 11 10 10 10 10 10 9 9 8 8 8 7 7 6 6 6 7 7 6 6 6
8 11 18 14 10 11 11 12 12 12 13 13 13 15 22 14 12 12 11 10 10 11 11 11 10 10 10 9 9 9 9 8 7 7 7 6 6 6 6 6 6 6 6
9 9 9 11 11 11 13 12 12 12 13 15 13 14 22 14 11 11 11 11 10 10 10 11 10 9 9 9 9 9 9 8 7 7 6 6 6 6 6 6 7 6 6
9 11 12 12 11 17 16 12 11 12 13 13 13 13 12 11 11 11 11 11 10 10 10 10 10 10 9 9 8 8 9 8 7 7 6 7 6 6 7 7 8 8 8
10 11 13 13 13 12 13 13 12 12 12 12 12 12 11 11 11 12 12 11 11 11 11 10 11 12 14 11 9 8 8 8 8 7 8 8 8 7 7 7 8 9 9
10 12 13 13 13 13 13 13 12 12 12 13 12 12 11 11 12 12 11 11 12 12 13 12 10 11 13 13 12 10 14 17 15 10 7 7 8 9 9 9 9 9 9
11 13 13 12 12 12 12 13 12 12 12 12 12 11 12 12 12 12 11 11 11 12 12 11 11 13 14 12 13 16 18 18 17 17 10 8 9 9 9 9 11 11 11
Wind_Direction
96 71 3 325 324 314 300 294 295 295 296 295 293 292 289 287 286 285 283 285 284 284 283 281 278 276 275 271 269 267 264 264 276 282 268 260 258 265 274 275 276 273 273
99 16 317 310 305 299 295 298 303 303 301 297 294 291 289 289 289 288 289 289 287 288 289 291 292 294 289 285 280 276 274 270 274 283 284 272 262 263 267 269 275 275 269
93 320 308 306 306 302 302 307 309 303 298 295 294 292 290 289 287 283 281 281 279 280 283 285 287 289 287 284 281 279 277 278 275 280 285 281 273 269 272 273 271 272 272
235 285 293 295 299 301 303 302 298 294 293 292 289 286 284 283 282 281 279 276 275 274 274 274 277 277 278 277 278 274 273 273 271 274 279 281 276 266 265 271 274 265 268
267 279 277 282 290 293 293 293 291 290 288 285 284 283 281 282 282 280 277 272 271 272 272 272 274 279 280 281 280 275 269 269 271 272 275 278 277 272 268 267 272 273 266
265 273 276 281 283 284 286 288 288 287 285 283 282 281 282 286 293 297 298 288 279 279 283 281 282 285 285 286 286 287 285 281 280 277 280 278 279 275 271 268 271 275 276
266 271 273 275 279 281 283 287 286 285 284 284 283 283 283 287 297 301 301 300 289 286 286 287 289 288 291 283 284 286 285 283 281 278 278 277 279 276 273 273 270 269 271
270 273 273 275 278 280 282 282 282 282 284 285 287 286 287 292 301 302 303 300 289 285 283 283 284 283 282 285 279 274 270 270 272 273 266 267 269 268 262 265 269 270 268
275 276 278 280 282 283 282 282 283 286 288 286 286 288 289 294 301 304 303 294 289 286 283 283 286 286 288 293 291 284 282 277 278 276 272 271 270 272 269 266 261 266 271
278 280 284 284 283 283 281 283 285 286 286 287 287 286 288 292 300 305 304 296 292 290 286 282 288 291 293 294 291 286 286 285 278 277 275 275 275 274 275 268 262 266 270
280 284 285 282 280 280 281 282 285 286 287 287 289 289 289 293 302 304 304 302 294 294 294 293 288 294 296 296 294 289 286 288 283 279 278 272 265 259 256 250 242 248 259
286 285 283 281 282 286 284 284 284 286 290 291 293 294 288 290 297 300 302 302 303 300 298 295 292 296 297 298 297 293 294 297 291 286 283 279 272 263 254 245 239 238 243
285 283 282 283 281 281 282 286 288 287 288 291 292 294 295 289 292 299 301 302 301 300 295 297 299 300 301 300 295 295 297 294 288 286 283 278 271 266 259 249 241 241 245
283 284 284 285 285 284 283 282 285 286 287 290 292 295 297 295 290 289 288 295 297 297 294 294 297 297 296 293 294 294 287 279 285 283 282 279 277 270 264 254 252 246 254
282 282 283 283 285 287 283 279 285 278 283 293 292 292 296 299 296 302 304 302 300 296 302 298 295 293 291 288 287 287 285 284 287 280 281 283 278 271 263 249 246 245 250
285 284 284 284 285 285 290 292 285 285 294 295 295 295 296 297 302 306 307 307 307 307 307 301 299 297 296 296 297 296 292 288 285 283 281 277 275 273 266 253 245 246 251
283 285 286 284 286 287 288 292 298 298 293 293 295 298 299 302 305 307 308 309 309 310 305 297 295 294 293 293 292 291 291 290 287 284 280 277 274 269 265 259 251 250 249
287 290 291 286 285 286 286 287 291 296 301 297 294 297 302 304 306 309 311 313 308 305 292 292 293 292 291 291 290 288 288 289 287 282 278 275 271 269 265 259 252 251 252
289 288 286 284 283 285 286 287 288 289 292 296 297 300 302 305 306 306 309 303 300 299 296 293 292 291 291 290 288 287 285 285 283 280 276 273 269 265 264 260 257 261 259
285 289 293 290 287 287 287 288 289 289 291 293 296 299 304 303 300 301 300 294 295 296 294 293 293 291 292 290 288 285 284 283 281 276 272 269 265 264 262 259 256 258 255
284 288 293 292 286 286 287 287 287 288 291 292 293 296 301 303 301 301 300 297 295 295 295 294 292 291 290 289 286 283 281 282 279 276 272 265 263 264 262 258 256 254 253
284 284 284 285 286 286 287 285 286 288 290 291 293 296 301 300 295 295 294 294 293 291 292 291 291 289 287 286 286 285 283 280 276 273 270 266 264 263 262 258 254 252 251
282 284 286 286 286 289 291 286 285 286 288 290 293 296 296 294 294 295 295 295 295 294 292 289 290 289 285 282 279 278 279 278 275 271 269 269 266 264 261 257 254 252 248
281 283 286 288 288 286 287 287 286 288 290 291 293 294 294 294 295 295 295 296 295 294 293 291 289 287 285 286 283 277 273 272 269 263 261 263 264 263 262 259 257 252 250
288 289 289 290 289 289 290 290 290 290 292 293 294 296 296 296 296 296 295 295 295 294 293 293 292 290 287 284 283 279 283 284 282 273 258 258 259 258 259 259 258 257 253
290 290 291 292 291 291 292 293 293 293 293 294 296 295 295 295 295 295 295 294 295 296 296 295 289 287 287 287 283 284 288 287 285 280 270 258 255 257 256 258 257 257 257
Height
1515 1514 1514 1513 1511 1510 1508 1507 1505 1502 1500 1497 1494 1491 1488 1485 1482 1478 1474 1471 1468 1464 1461 1458 1454 1451 1448 1445 1442 1439 1436 1432 1422 1412 1414 1415 1414 1413 1412 1411 1408 1406 1405
1512 1511 1510 1509 1508 1506 1504 1502 1500 1497 1495 1492 1488 1485 1481 1478 1474 1470 1466 1463 1459 1455 1451 1448 1444 1441 1437 1434 1431 1428 1425 1423 1418 1407 1402 1404 1403 1403 1401 1400 1398 1396 1394
1508 1508 1507 1505 1504 1502 1500 1497 1495 1492 1488 1485 1482 1478 1474 1470 1466 1462 1458 1454 1450 1446 1442 1438 1434 1430 1426 1423 1420 1417 1414 1412 1408 1402 1394 1393 1392 1392 1391 1388 1387 1385 1383
1505 1504 1502 1501 1499 1497 1494 1492 1489 1485 1482 1478 1474 1470 1466 1462 1458 1454 1449 1445 1440 1436 1433 1428 1424 1421 1416 1413 1410 1406 1404 1401 1398 1394 1387 1384 1382 1382 1381 1378 1375 1374 1372
1501 1500 1498 1496 1494 1492 1489 1486 1482 1479 1475 1471 1467 1463 1459 1455 1451 1446 1441 1436 1431 1426 1422 1419 1415 1412 1408 1405 1402 1398 1395 1392 1388 1384 1379 1376 1373 1373 1371 1369 1366 1364 1361
1496 1495 1493 1491 1489 1486 1483 1480 1476 1472 1468 1464 1460 1455 1451 1447 1443 1439 1434 1428 1423 1418 1413 1409 1406 1402 1399 1395 1393 1390 1388 1384 1380 1376 1372 1368 1365 1364 1363 1361 1358 1355 1351
1492 1490 1488 1486 1483 1481 1477 1473 1469 1465 1461 1457 1453 1448 1444 1439 1436 1431 1426 1421 1415 1410 1405 1400 1396 1393 1390 1386 1382 1380 1377 1375 1372 1369 1364 1360 1358 1356 1355 1352 1350 1347 1344
1487 1485 1483 1481 1478 1475 1471 1467 1463 1458 1454 1450 1445 1441 1436 1431 1427 1422 1417 1412 1406 1402 1398 1393 1389 1384 1382 1378 1373 1369 1366 1364 1362 1359 1355 1351 1349 1347 1346 1343 1341 1338 1335
1483 1481 1478 1476 1472 1468 1464 1460 1456 1451 1447 1442 1438 1433 1428 1422 1419 1414 1409 1403 1397 1393 1389 1385 1382 1377 1373 1370 1366 1360 1356 1353 1352 1349 1346 1343 1340 1338 1337 1334 1332 1330 1326
1478 1476 1473 1470 1466 1462 1458 1454 1449 1445 1439 1435 1429 1425 1420 1415 1410 1406 1402 1396 1389 1384 1380 1376 1373 1370 1365 1362 1358 1352 1347 1344 1341 1338 1335 1332 1330 1328 1327 1326 1324 1322 1319
1473 1470 1467 1464 1460 1456 1451 1447 1443 1437 1432 1427 1421 1417 1412 1407 1402 1398 1394 1390 1383 1377 1372 1367 1364 1361 1357 1353 1349 1344 1340 1336 1332 1328 1325 1322 1320 1318 1317 1316 1315 1314 1312
1467 1464 1461 1457 1453 1449 1445 1440 1435 1430 1424 1419 1413 1407 1403 1399 1395 1390 1386 1382 1378 1371 1364 1360 1355 1351 1347 1344 1340 1335 1332 1328 1324 1320 1317 1314 1312 1310 1308 1307 1306 1305 1305
1461 1457 1454 1450 1446 1442 1438 1432 1428 1423 1417 1411 1405 1399 1393 1389 1386 1382 1378 1373 1369 1364 1357 1352 1347 1343 1338 1334 1330 1326 1323 1319 1315 1312 1309 1306 1304 1302 1301 1299 1298 1298 1297
1454 1450 1447 1442 1438 1434 1430 1426 1421 1416 1410 1404 1398 1392 1386 1380 1377 1373 1368 1363 1359 1354 1348 1342 1338 1333 1329 1325 1321 1318 1315 1312 1308 1305 1302 1299 1297 1296 1294 1293 1292 1291 1290
1447 1443 1439 1435 1431 1426 1422 1418 1413 1409 1405 1399 1392 1386 1380 1373 1369 1367 1362 1356 1351 1346 1340 1334 1329 1325 1320 1317 1314 1311 1308 1305 1302 1299 1296 1293 1291 1290 1288 1287 1287 1286 1285
1440 1436 1432 1427 1423 1418 1413 1408 1404 1401 1396 1391 1386 1381 1374 1369 1363 1358 1354 1349 1343 1339 1333 1327 1322 1318 1315 1311 1307 1304 1301 1298 1295 1293 1290 1288 1286 1284 1283 1282 1282 1281 1280
1433 1428 1424 1419 1415 1410 1405 1399 1393 1388 1385 1381 1377 1372 1367 1361 1356 1351 1345 1340 1336 1331 1326 1321 1317 1313 1309 1305 1302 1298 1295 1292 1290 1287 1285 1283 1281 1280 1278 1277 1277 1276 1275
1426 1421 1416 1412 1407 1402 1398 1393 1387 1380 1374 1368 1366 1363 1358 1353 1348 1343 1338 1333 1327 1323 1319 1315 1311 1307 1303 1299 1296 1293 1289 1286 1284 1281 1279 1278 1276 1275 1274 1273 1272 1271 1270
1417 1413 1408 1404 1399 1395 1390 1385 1380 1374 1368 1362 1356 1353 1350 1345 1340 1336 1331 1326 1321 1316 1312 1308 1305 1301 1297 1293 1290 1287 1283 1280 1278 1276 1274 1272 1271 1270 1268 1267 1267 1266 1265
1409 1405 1401 1396 1391 1387 1382 1377 1372 1367 1362 1356 1350 1345 1341 1337 1331 1327 1323 1319 1315 1310 1306 1302 1298 1294 1291 1287 1284 1280 1277 1274 1272 1270 1268 1267 1265 1264 1263 1262 1261 1260 1259
1401 1396 1392 1388 1383 1379 1374 1369 1365 1360 1354 1349 1344 1340 1336 1331 1325 1320 1316 1312 1308 1304 1300 1296 1292 1288 1284 1281 1277 1274 1271 1268 1266 1264 1263 1261 1260 1258 1257 1256 1255 1254 1253
1393 1388 1384 1379 1375 1371 1366 1362 1357 1352 1347 1341 1336 1332 1328 1324 1319 1314 1309 1305 1301 1297 1293 1289 1285 1281 1278 1275 1271 1268 1265 1262 1260 1258 1257 1255 1254 1252 1251 1249 1248 1247 1246
1385 1380 1376 1371 1367 1362 1358 1353 1349 1344 1339 1334 1329 1324 1320 1316 1311 1307 1302 1298 1293 1289 1286 1282 1278 1274 1271 1268 1265 1262 1259 1256 1254 1252 1250 1248 1247 1245 1244 1242 1241 1240 1239
1377 1372 1368 1363 1359 1354 1349 1345 1340 1336 1331 1326 1322 1317 1313 1308 1304 1299 1295 1290 1286 1282 1278 1275 1271 1267 1264 1261 1258 1255 1252 1250 1247 1245 1244 1242 1240 1238 1236 1235 1233 1232 1231
1369 1364 1360 1355 1350 1346 1341 1336 1332 1328 1323 1319 1314 1310 1305 1301 1296 1292 1287 1283 1279 1275 1271 1268 1264 1260 1257 1253 1251 1248 1245 1243 1241 1239 1237 1235 1233 1231 1229 1227 1226 1224 1223
1360 1356 1351 1346 1342 1337 1333 1328 1324 1320 1315 1311 1307 1302 1298 1293 1289 1284 1280 1276 1272 1268 1264 1260 1257 1253 1249 1246 1243 1240 1238 1236 1234 1232 1230 1227 1225 1223 1221 1219 1217 1216 1214